Location: Człuchów
(53.6645°N, 17.3592°E)
Time: 22:41:41
(UTC+01:00)

ISS - Visible Passes

Search period start: 23 January 2019 00:00
Search period end: 02 February 2019 00:00
Orbit: 404 x 410 km, 51.6° (Epoch: 24 January)

Date Brightness Start Highest point End Pass type
(mag) Time Alt. Az. Time Alt. Az. Time Alt. Az.
23 Jan -1.1 18:40:40 10° S 18:41:05 12° S 18:41:05 12° S visible
24 Jan -1.4 17:50:45 10° SSE 17:51:44 11° SE 17:52:03 11° SE visible
24 Jan -0.7 19:24:31 10° SW 19:24:47 12° SW 19:24:47 12° SW visible
25 Jan -2.2 18:33:30 10° SSW 18:35:41 25° S 18:35:41 25° S visible
26 Jan -1.9 17:42:42 10° SSW 17:45:08 19° SSE 17:46:30 15° ESE visible
26 Jan -1.4 19:17:59 10° WSW 19:19:14 20° SW 19:19:14 20° SW visible
27 Jan -3.1 18:26:46 10° SW 18:29:54 40° SSE 18:30:00 40° SSE visible
28 Jan -2.5 17:35:40 10° SW 17:38:36 30° SSE 17:40:43 16° E visible
28 Jan -1.9 19:11:35 10° WSW 19:13:26 30° WSW 19:13:26 30° WSW visible
29 Jan -3.5 18:20:14 10° WSW 18:23:29 53° S 18:24:07 44° SE visible
29 Jan -0.3 19:56:35 10° W 19:56:50 12° W 19:56:50 12° W visible
30 Jan -3.1 17:28:57 10° WSW 17:32:07 44° SSE 17:34:47 14° E visible
30 Jan -2.5 19:05:11 10° W 19:07:30 39° WSW 19:07:30 39° WSW visible
31 Jan -3.6 18:13:47 10° WSW 18:17:03 61° S 18:18:09 36° ESE visible
31 Jan -0.6 19:50:14 10° W 19:50:52 14° W 19:50:52 14° W visible
01 Feb -3.4 17:22:23 10° WSW 17:25:38 57° S 17:28:49 11° E visible
01 Feb -2.9 18:58:46 10° W 19:01:32 46° SW 19:01:32 46° SW visible
